Joliet, IL

5:50 PM CDT on March 25, 2017 (GMT -0500)
Joliet Regional

Weather History for KJOT - March, 2013

Change the Weather History Date:

Friday, March 15, 2013

  Actual Average (KARR) Record (KARR)
Temperature  
Mean Temperature 36 °F -  
Max Temperature 43 °F 42 °F 80 °F (2012)
Min Temperature 28 °F 24 °F 11 °F (1999)
Degree Days  
Heating Degree Days 30    
Moisture  
Dew Point 33 °F    
Average Humidity 90    
Maximum Humidity 96    
Minimum Humidity 78    
Precipitation  
Precipitation 0.01 in - - ()
Sea Level Pressure  
Sea Level Pressure 29.89 in    
Wind  
Wind Speed 3 mph (East)    
Max Wind Speed 12 mph    
Max Gust Speed 17 mph    
Visibility 5 miles    
Events Rain    
Averages and records for this station are not official NWS values.
T = Trace of Precipitation, MM = Missing Value Source: NWS Daily Summary

Daily Weather History Graph

Daily Weather History Graph

Search for Another Location

Airport or City:

Trip Planner

Search our weather history database for the weather conditions in past years. The results will help you decide how hot, cold, wet, or windy it might be!

Date:

Astronomy

Mar. 15, 2013 Rise Set
Actual Time 7:04 AM CDT 6:59 PM CDT
Civil Twilight 6:36 AM CDT 7:27 PM CDT
Nautical Twilight 6:04 AM CDT 7:59 PM CDT
Astronomical Twilight 5:31 AM CDT 8:32 PM CDT
Moon 8:50 AM CDT (3/15) 11:17 PM CDT (3/15)
Length of Visible Light 12h 50m
Length of Day
11h 55m
Waxing Crescent, 15% of the Moon is Illuminated
Mar 15
Waxing Crescent
Mar 19
First Quarter
Mar 27
Full
Apr 2
Last Quarter
Apr 10
New

Hourly Weather History & Observations

Time (CDT) Temp. Windchill Dew Point Humidity Pressure Visibility Wind Dir Wind Speed Gust Speed Precip Events Conditions
12:15 AM 32.0 °F 27.5 °F 30.0 °F 92% 30.08 in 10.0 mi South 4.6 mph - N/A   Clear
12:35 AM 32.0 °F - 29.8 °F 92% 30.08 in 7.0 mi Calm Calm - N/A   Clear
1:15 AM 32.0 °F - 29.8 °F 92% 30.07 in 7.0 mi Calm Calm - N/A   Clear
2:35 AM 29.5 °F - 28.4 °F 96% 30.04 in 5.0 mi Calm Calm - N/A   Clear
2:55 AM 29.5 °F - 28.4 °F 96% 30.03 in 5.0 mi Calm Calm - N/A   Clear
3:15 AM 29.5 °F - 28.4 °F 96% 30.02 in 5.0 mi Calm Calm - N/A   Clear
3:35 AM 30.2 °F 26.7 °F 28.9 °F 95% 30.01 in 5.0 mi South 3.5 mph - N/A   Clear
3:55 AM 30.6 °F 27.1 °F 29.1 °F 94% 30.00 in 5.0 mi SSW 3.5 mph - N/A   Clear
4:15 AM 30.2 °F 26.7 °F 28.4 °F 93% 29.99 in 5.0 mi SSW 3.5 mph - N/A   Clear
4:35 AM 30.6 °F - 28.8 °F 93% 29.98 in 5.0 mi Calm Calm - N/A   Clear
4:55 AM 30.2 °F - 28.4 °F 93% 29.97 in 5.0 mi Calm Calm - N/A   Clear
5:15 AM 29.8 °F - 28.0 °F 93% 29.97 in 5.0 mi Calm Calm - N/A   Clear
5:55 AM 29.7 °F - 28.4 °F 95% 29.96 in 4.0 mi Calm Calm - N/A   Clear
6:15 AM 30.0 °F - 28.4 °F 94% 29.98 in 5.0 mi Calm Calm - N/A   Clear
6:35 AM 28.6 °F - 27.1 °F 94% 29.97 in 3.0 mi Calm Calm - N/A   Clear
6:55 AM 28.9 °F - 28.0 °F 96% 29.96 in 4.0 mi Calm Calm - N/A   Clear
7:15 AM 29.1 °F - 28.2 °F 96% 29.96 in 3.0 mi Calm Calm - N/A   Clear
7:35 AM 29.1 °F - 28.2 °F 96% 29.96 in 3.0 mi Calm Calm - N/A   Clear
7:55 AM 30.6 °F - 29.3 °F 95% 29.95 in 4.0 mi Calm Calm - N/A   Clear
8:15 AM 31.6 °F - 30.2 °F 94% 29.95 in 4.0 mi Calm Calm - N/A   Clear
8:35 AM 32.0 °F 28.7 °F 30.2 °F 93% 29.95 in 5.0 mi South 3.5 mph - N/A   Clear
8:55 AM 33.1 °F 30.0 °F 30.7 °F 91% 29.96 in 5.0 mi SSW 3.5 mph - N/A   Clear
9:15 AM 33.6 °F 30.6 °F 30.9 °F 90% 29.96 in 5.0 mi SSW 3.5 mph - N/A   Clear
9:35 AM 34.7 °F 31.8 °F 31.8 °F 89% 29.95 in 5.0 mi SSW 3.5 mph - N/A   Clear
10:55 AM 37.4 °F 33.8 °F 32.4 °F 82% 29.93 in 7.0 mi WSW 4.6 mph - N/A   Scattered Clouds
11:35 AM 39.0 °F - 32.9 °F 79% 29.92 in 7.0 mi Calm Calm - N/A   Scattered Clouds
11:55 AM 39.4 °F - 32.9 °F 78% 29.92 in 7.0 mi Calm Calm - N/A   Clear
12:15 PM 39.4 °F - 32.9 °F 78% 29.92 in 7.0 mi Calm Calm - N/A   Clear
12:35 PM 39.2 °F - 33.1 °F 79% 29.91 in 7.0 mi Calm Calm - N/A Rain Light Rain
12:55 PM 39.2 °F - 34.7 °F 84% 29.89 in 5.0 mi Calm Calm - N/A Rain Light Rain
1:35 PM 40.6 °F 38.6 °F 36.1 °F 84% 29.90 in 5.0 mi WSW 3.5 mph - N/A   Light Drizzle
1:55 PM 40.3 °F - 36.1 °F 85% 29.90 in 5.0 mi Calm Calm - 0.01 in Rain Light Rain
2:15 PM 39.7 °F 36.5 °F 36.5 °F 88% 29.88 in 4.0 mi NNE 4.6 mph - N/A Rain Rain
2:35 PM 39.2 °F - 37.4 °F 93% 29.87 in 4.0 mi Calm Calm - N/A Rain Light Rain
2:55 PM 41.0 °F - 37.2 °F 86% 29.87 in 5.0 mi Calm Calm - N/A   Clear
3:35 PM 42.8 °F - 37.9 °F 83% 29.85 in 5.0 mi Calm Calm - N/A   Haze
3:55 PM 42.4 °F - 37.2 °F 82% 29.86 in 5.0 mi Calm Calm - N/A   Haze
4:15 PM 43.0 °F - 38.3 °F 84% 29.84 in 5.0 mi Calm Calm - N/A   Haze
4:35 PM 43.5 °F 40.9 °F 38.3 °F 82% 29.84 in 5.0 mi East 4.6 mph - N/A   Haze
4:55 PM 43.0 °F 38.8 °F 37.6 °F 81% 29.82 in 5.0 mi East 6.9 mph - N/A   Haze
5:35 PM 42.8 °F 40.1 °F 37.6 °F 82% 29.82 in 7.0 mi SE 4.6 mph - N/A   Clear
5:55 PM 42.4 °F 38.1 °F 38.3 °F 85% 29.80 in 5.0 mi East 6.9 mph - N/A   Haze
6:15 PM 42.3 °F 37.9 °F 38.3 °F 86% 29.79 in 5.0 mi East 6.9 mph - N/A   Light Drizzle
6:35 PM 41.9 °F 36.3 °F 38.3 °F 87% 29.78 in 5.0 mi East 9.2 mph - N/A   Mostly Cloudy
6:55 PM 41.9 °F 35.9 °F 38.3 °F 87% 29.76 in 5.0 mi East 10.4 mph - N/A   Mostly Cloudy
7:15 PM 41.9 °F 40.0 °F 38.3 °F 87% 29.79 in 5.0 mi SE 3.5 mph - N/A   Scattered Clouds
7:35 PM 41.5 °F - 38.3 °F 88% 29.80 in 5.0 mi Calm Calm - N/A   Mostly Cloudy
7:55 PM 40.6 °F 38.6 °F 37.9 °F 90% 29.80 in 4.0 mi SE 3.5 mph - N/A   Overcast
8:15 PM 40.1 °F 35.3 °F 37.8 °F 91% 29.81 in 2.5 mi NNE 6.9 mph - N/A   Overcast
8:55 PM 36.5 °F 28.7 °F 34.7 °F 93% 29.81 in 2.0 mi NE 11.5 mph 17.3 mph N/A   Overcast
9:15 PM 35.6 °F 28.6 °F 34.0 °F 94% 29.79 in 1.5 mi NE 9.2 mph - N/A   Overcast
9:35 PM 35.1 °F 27.4 °F 33.6 °F 94% 29.78 in 1.5 mi NE 10.4 mph - N/A   Overcast
9:55 PM 35.1 °F 27.4 °F 33.3 °F 93% 29.79 in 1.8 mi NE 10.4 mph 16.1 mph N/A   Overcast
10:15 PM 35.1 °F 28.6 °F 33.3 °F 93% 29.79 in 1.5 mi NE 8.1 mph - N/A   Overcast
10:55 PM 34.7 °F 28.1 °F 33.1 °F 94% 29.74 in 1.5 mi NE 8.1 mph 16.1 mph N/A   Overcast
11:15 PM 34.9 °F 27.1 °F 33.3 °F 94% 29.73 in 1.5 mi NE 10.4 mph - N/A   Overcast
11:35 PM 34.9 °F 29.0 °F 33.1 °F 93% 29.72 in 1.8 mi NE 6.9 mph - N/A   Mostly Cloudy
11:55 PM 34.7 °F 26.4 °F 32.5 °F 92% 29.71 in 2.0 mi ENE 11.5 mph - N/A   Mostly Cloudy